This is the latest recevied weather packets stored in our database for station/object W6SNO-1. If no packets are shown the sender has not sent any weather packets the latest 1 day(s).
| Time | Temp. | Humidity | Pressure | Rain* | Wind** | Luminosity | Snow |
|---|---|---|---|---|---|---|---|
| 1778050076 | 13.89° C | 81% | 1018.5 hPa | 0 mm | - | 0 W/m² | - |
| 1778049167 | 13.89° C | 79% | 1018.5 hPa | 0 mm | - | 0 W/m² | - |
| 1778048865 | 13.89° C | 79% | 1018.5 hPa | 0 mm | - | 0 W/m² | - |
| 1778048258 | 13.89° C | 79% | 1018.5 hPa | 0 mm | - | 0 W/m² | - |
| 1778047654 | 13.89° C | 80% | 1017.9 hPa | 0 mm | - | 0 W/m² | - |
| 1778047351 | 14.44° C | 81% | 1018 hPa | 0 mm | - | 0 W/m² | - |
| 1778046137 | 14.44° C | 80% | 1018.1 hPa | 0 mm | - | 0 W/m² | - |
| 1778045835 | 15° C | 80% | 1018 hPa | 0 mm | - | 0 W/m² | - |
| 1778045231 | 15° C | 80% | 1018 hPa | 0 mm | - | 0 W/m² | - |
| 1778044929 | 15° C | 80% | 1017.9 hPa | 0 mm | - | 0 W/m² | - |
| 1778044323 | 15° C | 79% | 1017.8 hPa | 0 mm | - | 0 W/m² | - |
| 1778044021 | 14.44° C | 80% | 1018 hPa | 0 mm | - | 0 W/m² | - |
| 1778043718 | 14.44° C | 80% | 1017.9 hPa | 0 mm | - | 0 W/m² | - |
| 1778043414 | 15° C | 84% | 1017.8 hPa | 0 mm | - | 0 W/m² | - |
| 1778043111 | 14.44° C | 80% | 1017.7 hPa | 0 mm | - | 0 W/m² | - |
| 1778042809 | 14.44° C | 80% | 1017.7 hPa | 0 mm | - | 0 W/m² | - |
| 1778042505 | 15° C | 80% | 1017.5 hPa | 0 mm | - | 0 W/m² | - |
| 1778042203 | 14.44° C | 79% | 1017.6 hPa | 0 mm | - | 0 W/m² | - |
| 1778041297 | 15° C | 77% | 1017.5 hPa | 0 mm | - | 0 W/m² | - |
| 1778040692 | 14.44° C | 78% | 1017.3 hPa | 0 mm | - | 0 W/m² | - |
| 1778040086 | 14.44° C | 77% | 1017.1 hPa | 0 mm | - | 0 W/m² | - |
| 1778039783 | 14.44° C | 77% | 1017.2 hPa | 0 mm | - | 0 W/m² | - |
| 1778039177 | 14.44° C | 76% | 1016.9 hPa | 0 mm | - | 0 W/m² | - |
| 1778038874 | 14.44° C | 77% | 1016.9 hPa | 0 mm | - | 0 W/m² | - |
| 1778038571 | 14.44° C | 76% | 1016.9 hPa | 0 mm | - | 0 W/m² | - |
* Rain latest hour (hover to see other rain measurements)
** Current wind speed in m/s (hover to see current wind gust speed)